THOR ABLESTAR DEB, 244

Orbit data source: Space-Track

THOR ABLESTAR DEB, 244 is space debris in LEO originally from a launch on Thu, 29 Jun 1961 UTC launched from the Air Force Eastern Test Range (AFETR). Debris objects in space refer to the collection of defunct objects orbiting the Earth. Examples of debris include non-operational satellites, rocket bodies, and fragments generated from explosions, collisions, or faulty payload assembly.

Loading next visibility...
Identifier
244, 1961-015BZ
Orbit
LEO
Country
Flag of USUS
Related business
Manufacturer
Unknown
Mission
Spacecraft
Bus & Motor
Unknown
Mass
Unknown
Launch date (UTC)
1961-06-29 (65 years ago)
Launch vehicle
Unknown
Launch site
Air Force Eastern Test Range (AFETR)
Object type
Payload
Rocket body
Debris
Shape & HBR
Unknown shape, 0.2 m
Radar Cross Section
Small (<0.1 m²)

Expand to show TLE details & history
Last TLE update: 21 hours ago

TLE from 21 hours ago
0 THOR ABLESTAR DEB
1 00244U 61015BZ  26123.02180347  .00000146  00000-0  16102-3 0  9996
2 00244  66.8422 340.4513 0062997 118.3777 242.3676 13.95727357292830
Epoch: 2026-05-03T00:31Z
TLE epoch observation values (Epoch: 2026-05-03T00:31:23.819Z)
Latitude
-0.00001°
Longitude
111.67072°
Altitude
932.231 km
Speed
7.375 km/s
True Right ascension
22h 41m 48s
True Declination
0° 00' 00"
Sunlit
Object was in daylight at epoch
Visualization orbit readout
Latitude
Unknown
Longitude
Unknown
Altitude
Unknown
Speed
Unknown
Apparent Right ascension
Unknown
Apparent Declination
Unknown
Sunlit
N/A
Visualization observer readout
Local Sidereal Time
04:48:15
Azimuth
Unknown
Elevation
Unknown
Doppler factor
Unknown
Orbital elements
Apogee altitude
952.907 km
Perigee altitude
861.119 km
Semi-major axis
7,285.15 km
Eccentricity
0.0063
Inclination
66.8422°
RAAN
340.4513°
Arg. of periapsis
118.3777°
True anomaly
241.73039°
Mean anomaly
242.3676°
Eccentric anomaly
242.04876°
Mean motion
3.49048 °/min
Orbital period
103.14 mins
BSTAR
0.00016102
Loading maneuver chart data...
Computing Atmospheric mass density...

Documentation

Showing up to 5 results
|